This demonstration page uses our WeatherBlox Daily Observations layout. Learn more.

Left ArrowRight Arrow

Hourly Observations for May 4, 2017

Temp ( °F °C ) Dew Point ( °F °C ) Humidity (%) Winds ( mph kmh ) Pressure ( in mb ) Visibility ( mi km ) Precip ( " mm )
12:05 am 00:05 Cloudy with Light Rain 46 7.8 44 6.7 93 93 N 16 26 29.94 1014 10 16 0.01 0.25
12:19 am 00:19 Cloudy with Light Rain 46 7.8 44 6.7 93 93 N 15 24 29.94 1014 10 16 0.01 0.25
12:52 am 00:52 Cloudy with Light Rain 46 7.8 43 6.1 89 89 N 16 26 29.89 1012 10 16 0.02 0.51
1:26 am 01:26 Cloudy with Light Rain 46 7.8 43 6.1 89 89 N 21 33 29.91 1013 10 16 0.00 0.03
1:38 am 01:38 Cloudy with Light Rain 46 8 43 6 87 87 N 22 35 29.91 1013 10 16 0.00 0.00
1:52 am 01:52 Cloudy 46 7.8 43 6.1 89 89 N 18 30 29.87 1012 10 16 0.00 0.03
2:52 am 02:52 Cloudy with Light Rain 45 7.2 43 6.1 93 93 N 22 35 29.87 1011 10 16 0.00 0.03
3:52 am 03:52 Cloudy with Rain 45 7.2 43 6.1 93 93 N 21 33 29.88 1012 5 8 0.06 1.52
4:24 am 04:24 Cloudy with Light Rain 45 7 43 6 93 93 N 21 33 29.91 1013 10 16 0.00 0.00
4:34 am 04:34 Cloudy 45 7 43 6 93 93 N 22 35 29.91 1013 10 16 0.00 0.00
4:52 am 04:52 Cloudy with Light Rain 45 7.2 42 5.6 90 90 N 18 30 29.89 1012 8 13 0.01 0.25
5:16 am 05:16 Cloudy 45 7.2 42 5.6 90 90 N 20 31 29.91 1013 10 16 0.00 0.03
5:52 am 05:52 Cloudy 45 7.2 41 5 86 86 N 17 28 29.89 1012 10 16 0.00 0.03
6:22 am 06:22 Cloudy 45 7 41 5 87 87 N 17 28 29.94 1014 10 16 0.00 0.00
6:52 am 06:52 Mostly Cloudy 44 6.7 41 5 89 89 NNW 15 24 29.92 1013 10 16 0.00 0.00
7:52 am 07:52 Sunny 45 7.2 41 5 86 86 NNW 18 30 29.93 1013 10 16 0.00 0.00
8:52 am 08:52 Sunny 46 7.8 41 5 83 83 NNW 16 26 29.93 1014 10 16 0.00 0.00
9:52 am 09:52 Sunny 49 9.4 42 5.6 77 77 NNW 21 33 29.94 1014 10 16 0.00 0.00
10:52 am 10:52 Mostly Sunny 53 11.7 42 5.6 66 66 NNW 24 39 29.93 1014 10 16 0.00 0.00
11:52 am 11:52 Mostly Sunny 55 12.8 40 4.4 57 57 N 20 31 29.93 1013 10 16 0.00 0.00
12:52 pm 12:52 Sunny 59 15 36 2.2 42 42 N 17 28 29.91 1013 10 16 0.00 0.00
1:52 pm 13:52 Sunny 61 16.1 36 2.2 39 39 NNW 23 37 29.89 1012 10 16 0.00 0.00
2:52 pm 14:52 Sunny 62 16.7 36 2.2 38 38 N 26 43 29.89 1012 10 16 0.00 0.00
3:52 pm 15:52 Sunny 63 17.2 37 2.8 38 38 N 30 48 29.89 1012 10 16 0.00 0.00
4:52 pm 16:52 Mostly Cloudy 63 17.2 38 3.3 40 40 NNW 25 41 29.88 1012 10 16 0.00 0.00
5:52 pm 17:52 Partly Cloudy 63 17.2 40 4.4 43 43 N 20 31 29.88 1012 10 16 0.00 0.00
6:52 pm 18:52 Sunny 62 16.7 39 3.9 43 43 NNW 18 30 29.89 1012 10 16 0.00 0.00
7:52 pm 19:52 Sunny 59 15 39 3.9 48 48 N 16 26 29.91 1013 10 16 0.00 0.00
8:52 pm 20:52 Clear 52 11.1 40 4.4 64 64 NNW 9 15 29.92 1013 10 16 0.00 0.00
9:52 pm 21:52 Clear 52 11.1 40 4.4 64 64 NW 6 9 29.92 1013 10 16 0.00 0.00
10:52 pm 22:52 Mostly Cloudy 51 10.6 41 5 69 69 NW 6 9 29.92 1013 10 16 0.00 0.00
11:52 pm 23:52 Mostly Cloudy 53 11.7 42 5.6 66 66 NW 7 11 29.91 1013 10 16 0.00 0.00

Powered by AerisWeather